Location: Unspecified
(0.0000°N, 0.0000°E)
Time: 12:25:24
(UTC+00:00)

Vanguard 2 Rocket - Pass Details

Date: 15 December 2018
Orbit: 556 x 3325 km, 32.9° (Epoch: 25 March)

Event Time Altitude Azimuth Distance (km) Brightness Sun altitude
Rises 23:50:23 0° 224° (SW) 6,617 11.5 -66.7°
Reaches altitude 10° 23:56:08 10° 215° (SW) 5,163 10.9 -66.7°
Enters shadow 00:00:46 20° 202° (SSW) 3,993 10.2 -66.7°
Maximum altitude 00:07:42 31° 158° (SSE) 2,687 - -66.5°
Drops below altitude 10° 00:14:55 10° 98° (E) 3,195 - -66.2°
Sets 00:17:31 0° 87° (E) 3,852 - -66.1°
